Photometre #849[NE_1.6_Dp] Portglenone_MO AOT

File : 20220920_849.hum

20/09/2022,07:09:06,TEMP=12.7,BA=5.68,STAT.A,ExtBa=12.20
20/09/2022,07:13:35,TEMP=12.9,BA=5.60,STAT.A,ExtBa=12.20
20/09/2022,07:18:51,TEMP=13.0,BA=5.60,STAT.A,ExtBa=12.20
20/09/2022,07:25:08,TEMP=13.1,BA=5.60,STAT.A,ExtBa=12.20
20/09/2022,07:32:41,TEMP=13.2,BA=5.64,STAT.A,ExtBa=12.20
20/09/2022,07:42:05,TEMP=13.6,BA=5.64,STAT.A,ExtBa=12.20
20/09/2022,07:54:01,TEMP=14.4,BA=5.68,STAT.B,ExtBa=12.20
20/09/2022,08:06:54,TEMP=15.2,BA=5.60,STAT.A,ExtBa=12.10
20/09/2022,08:08:55,TEMP=15.3,BA=5.60,STAT.A,ExtBa=12.10
20/09/2022,08:13:34,TEMP=14.8,BA=5.60,STAT.A,ExtBa=12.20
20/09/2022,08:21:58,TEMP=14.6,BA=5.64,STAT.A,ExtBa=12.20
20/09/2022,08:31:43,TEMP=14.5,BA=5.64,STAT.C,ExtBa=12.20
20/09/2022,08:43:12,TEMP=14.4,BA=5.64,STAT.A,ExtBa=12.20
20/09/2022,08:56:59,TEMP=14.8,BA=5.64,STAT.A,ExtBa=12.20
20/09/2022,09:14:00,TEMP=15.6,BA=5.64,STAT.A,ExtBa=12.20
20/09/2022,09:20:04,TEMP=15.8,BA=5.60,STAT.F,ExtBa=12.20
20/09/2022,09:56:43,TEMP=18.2,BA=5.56,STAT.D,ExtBa=12.10
20/09/2022,09:58:53,TEMP=18.1,BA=5.56,STAT.D,ExtBa=12.10
20/09/2022,10:05:03,TEMP=17.6,BA=5.56,STAT.D,ExtBa=12.10
20/09/2022,10:20:04,TEMP=17.7,BA=5.60,STAT.F,ExtBa=12.10
20/09/2022,10:35:03,TEMP=17.8,BA=5.64,STAT.D,ExtBa=12.10
20/09/2022,10:50:03,TEMP=17.9,BA=5.64,STAT.D,ExtBa=12.10
20/09/2022,11:05:03,TEMP=18.2,BA=5.64,STAT.D,ExtBa=12.20
20/09/2022,11:20:04,TEMP=19.3,BA=5.56,STAT.F,ExtBa=12.20
20/09/2022,11:59:58,TEMP=21.2,BA=5.52,STAT.D,ExtBa=12.10
20/09/2022,12:01:56,TEMP=21.2,BA=5.52,STAT.D,ExtBa=12.10
20/09/2022,12:05:03,TEMP=20.9,BA=5.52,STAT.D,ExtBa=12.10
20/09/2022,12:20:04,TEMP=20.5,BA=5.56,STAT.F,ExtBa=12.10
20/09/2022,12:59:31,TEMP=21.3,BA=5.52,STAT.D,ExtBa=12.10
20/09/2022,13:01:31,TEMP=21.2,BA=5.52,STAT.D,ExtBa=12.10
20/09/2022,13:05:03,TEMP=20.8,BA=5.52,STAT.D,ExtBa=12.10
20/09/2022,13:20:05,TEMP=19.9,BA=5.52,STAT.F,ExtBa=12.10
20/09/2022,13:35:04,TEMP=19.6,BA=5.64,STAT.D,ExtBa=12.10
20/09/2022,13:50:04,TEMP=19.2,BA=5.52,STAT.D,ExtBa=12.10
20/09/2022,14:05:04,TEMP=19.2,BA=5.64,STAT.D,ExtBa=12.10
20/09/2022,14:20:04,TEMP=19.4,BA=5.52,STAT.F,ExtBa=12.10
20/09/2022,14:35:03,TEMP=19.5,BA=5.64,STAT.D,ExtBa=12.10
20/09/2022,14:50:02,TEMP=19.6,BA=5.64,STAT.D,ExtBa=12.10
20/09/2022,15:05:02,TEMP=19.8,BA=5.64,STAT.D,ExtBa=12.10
20/09/2022,15:20:04,TEMP=19.5,BA=5.56,STAT.F,ExtBa=12.10
20/09/2022,15:26:08,TEMP=19.4,BA=5.56,STAT.A,ExtBa=12.10
20/09/2022,15:43:09,TEMP=18.9,BA=5.64,STAT.A,ExtBa=12.10
20/09/2022,15:56:56,TEMP=18.7,BA=5.64,STAT.A,ExtBa=12.10
20/09/2022,16:08:25,TEMP=18.5,BA=5.64,STAT.C,ExtBa=12.10
20/09/2022,16:18:10,TEMP=18.4,BA=5.52,STAT.A,ExtBa=12.10
20/09/2022,16:26:34,TEMP=18.2,BA=5.60,STAT.A,ExtBa=12.10
20/09/2022,16:33:54,TEMP=18.1,BA=5.64,STAT.A,ExtBa=12.10
20/09/2022,16:40:21,TEMP=18.0,BA=5.64,STAT.A,ExtBa=12.10
20/09/2022,16:46:07,TEMP=17.9,BA=5.64,STAT.B,ExtBa=12.10
20/09/2022,16:58:02,TEMP=17.7,BA=5.64,STAT.A,ExtBa=12.10
20/09/2022,17:07:26,TEMP=17.6,BA=5.64,STAT.A,ExtBa=12.10
20/09/2022,17:14:59,TEMP=17.5,BA=5.64,STAT.A,ExtBa=12.10
20/09/2022,17:21:15,TEMP=17.4,BA=5.64,STAT.A,ExtBa=12.10
20/09/2022,17:29:34,TEMP=17.3,BA=5.64,STAT.A,ExtBa=12.10
20/09/2022,17:31:34,TEMP=17.7,BA=5.52,STAT.A,ExtBa=12.10